Flag for Greece Weather past 2 weeks in Nea Smyrni, Greece

Now
61 °F

Partly cloudy.


Feels Like: 61 °F
Forecast: 56 / 74 °F
Wind: 10 mph from Northwest

Location: Eleftherios Venizelos International Airport

Current Time: May 29, 2015 at 3:25:42 AM

Latest Report: May 29, 2015 at 2:50 AM


Visibility: N/A

Pressure: 29.83 "Hg

Humidity: 63%

Dew point: 48 °F

Location of Nea SmyrniLocation

Historic Weather in Nea Smyrni — Graph

°F

Nea Smyrni temperature yesterday

Maximum temperature yesterday: 75 °F (at 10:50 AM)
Minimum temperature yesterday: 59 °F (at 11:50 PM)
Average temperature yesterday: 65 °F

Past Weeks' High & Low Weather Summary

 TemperatureHumidityPressure
High84 °F (May 22, 2:20 PM)94% (May 21, 2:50 AM)30.15 "Hg (May 21, 2:50 AM)
Low50 °F (May 18, 5:20 AM)23% (May 25, 2:50 PM)29.68 "Hg (May 27, 5:54 AM)
Average69 °F60%29.88 "Hg
* Reported May 14 12:50 AM — May 29 12:50 AM, Nea Smyrni, Weather by CustomWeather, © 2015

Note: Actual official high and low records may vary slightly from our data, if they occured in-between our weather recording intervals... More about our weather records

Advertising

Nea Smyrni weather history for previous 24 hours

 ConditionsComfort  
Time TempWeatherWind HumidityBarometerVisibility
12:50 AM
Fri, May 29
59 °FPassing clouds.9 mph72%29.83 "HgN/A
12:20 AM59 °FPassing clouds.7 mph72%29.86 "HgN/A
11:50 PM
Thu, May 28
59 °FPassing clouds.5 mph72%29.86 "HgN/A
10:50 PM61 °FPassing clouds.5 mph68%29.86 "HgN/A
10:20 PM61 °FPassing clouds.3 mph72%29.86 "HgN/A
9:50 PM63 °FPassing clouds.5 mph64%29.83 "HgN/A
9:20 PM63 °FScattered clouds.5 mph68%29.83 "HgN/A
8:50 PM63 °FScattered clouds.2 mph68%29.83 "HgN/A
8:20 PM63 °FScattered clouds.5 mph68%29.83 "HgN/A
7:50 PM64 °FScattered clouds.6 mph68%29.83 "HgN/A
7:20 PM64 °FScattered clouds.5 mph73%29.80 "HgN/A
6:50 PM64 °FScattered clouds.2 mph78%29.80 "HgN/A
6:20 PM64 °FBroken clouds.3 mph78%29.80 "HgN/A
5:50 PM63 °FBroken clouds.3 mph77%29.80 "HgN/A
5:20 PM63 °FBroken clouds.3 mph88%29.83 "HgN/A
4:50 PM63 °FRain. Broken clouds.2 mph83%29.83 "Hg4 mi
4:20 PM61 °FThunderstorms. Partly sunny.2 mph83%29.83 "Hg4 mi
3:50 PM61 °FThunderstorms. Partly sunny.3 mph83%29.83 "Hg4 mi
3:20 PM63 °FThunderstorms. Partly sunny.8 mph83%29.83 "Hg3 mi
2:50 PM64 °FThunderstorms. Partly sunny.6 mph83%29.83 "HgN/A
1:50 PM64 °FThunderstorms. Partly sunny.10 mph68%29.80 "Hg5 mi
1:20 PM70 °FThunderstorms. Partly sunny.12 mph57%29.83 "HgN/A
12:50 PM72 °FPartly sunny.10 mph53%29.80 "HgN/A
12:20 PM70 °FScattered clouds.12 mph57%29.80 "HgN/A
11:50 AM72 °FScattered clouds.8 mph53%29.80 "HgN/A
11:20 AM72 °FRain. Partly sunny.6 mph57%29.80 "HgN/A
10:50 AM75 °FPartly sunny.8 mph47%29.80 "HgN/A
10:20 AM72 °FBroken clouds.6 mph53%29.80 "HgN/A
9:50 AM72 °FPartly sunny.5 mph61%29.80 "HgN/A
9:20 AM68 °FPartly sunny.3 mph78%29.80 "HgN/A
8:50 AM68 °FPartly sunny.2 mph78%29.80 "HgN/A
8:20 AM66 °FBroken clouds.No wind88%29.80 "HgN/A
7:50 AM64 °FBroken clouds.No wind94%29.80 "HgN/A
7:20 AM63 °FBroken clouds.1 mph94%29.80 "HgN/A
6:50 AM63 °FPartly cloudy.1 mph88%29.77 "HgN/A
6:20 AM61 °FPartly cloudy.2 mph94%29.77 "HgN/A
5:50 AM63 °FPassing clouds.2 mph88%29.77 "HgN/A
5:20 AM63 °FPassing clouds.5 mph88%29.77 "HgN/A
4:50 AM63 °FPassing clouds.1 mph88%29.77 "HgN/A
4:20 AM63 °FPartly cloudy.2 mph88%29.77 "HgN/A
3:50 AM64 °FPartly cloudy.No wind88%29.77 "HgN/A
3:20 AM63 °FPartly cloudy.1 mph94%29.77 "HgN/A
Weather by CustomWeather, © 2015

See weather overviewHow to use our weather pages